TimeCDT,TemperatureF,Dew PointF,Humidity,Sea Level PressureIn,VisibilityMPH,Wind Direction,Wind SpeedMPH,Gust SpeedMPH,PrecipitationIn,Events,Conditions,WindDirDegrees,DateUTC
12:01 AM,50.0,48.2,94,30.20,1.5,East,3.5,-,0.06,Rain,Heavy Rain,80,2012-10-12 05:01:00
12:52 AM,51.1,50.0,96,30.22,8.0,Calm,Calm,-,0.08,,Overcast,0,2012-10-12 05:52:00
1:52 AM,51.1,50.0,96,30.22,7.0,Calm,Calm,-,N/A,,Overcast,0,2012-10-12 06:52:00
2:52 AM,52.0,50.0,93,30.23,5.0,Calm,Calm,-,N/A,,Overcast,0,2012-10-12 07:52:00
3:52 AM,52.0,50.0,93,30.21,5.0,Calm,Calm,-,N/A,,Overcast,0,2012-10-12 08:52:00
5:52 AM,52.0,50.0,93,30.24,8.0,Calm,Calm,-,N/A,,Overcast,0,2012-10-12 10:52:00
6:52 AM,52.0,50.0,93,30.26,6.0,NE,3.5,-,N/A,,Overcast,40,2012-10-12 11:52:00
7:52 AM,52.0,50.0,93,30.29,4.0,Calm,Calm,-,N/A,,Clear,0,2012-10-12 12:52:00
8:52 AM,55.0,51.1,86,30.31,6.0,NNE,3.5,-,N/A,,Mostly Cloudy,30,2012-10-12 13:52:00
9:13 AM,55.4,51.8,88,30.31,8.0,Variable,3.5,-,N/A,,Partly Cloudy,0,2012-10-12 14:13:00
9:52 AM,55.9,51.1,84,30.32,10.0,NNE,5.8,-,N/A,,Mostly Cloudy,30,2012-10-12 14:52:00
10:52 AM,60.1,50.0,69,30.35,10.0,ENE,6.9,-,N/A,,Mostly Cloudy,60,2012-10-12 15:52:00
12:52 PM,62.1,48.9,62,30.33,10.0,ENE,4.6,-,N/A,,Clear,70,2012-10-12 17:52:00
3:52 PM,64.0,51.1,63,30.27,10.0,SE,4.6,-,N/A,,Mostly Cloudy,130,2012-10-12 20:52:00
4:52 PM,64.0,50.0,60,30.26,10.0,East,5.8,-,N/A,,Clear,90,2012-10-12 21:52:00
5:52 PM,61.0,50.0,67,30.26,10.0,SSE,3.5,-,N/A,,Clear,150,2012-10-12 22:52:00
6:52 PM,55.9,51.1,84,30.27,10.0,Calm,Calm,-,N/A,,Clear,0,2012-10-12 23:52:00
7:52 PM,53.1,51.1,93,30.27,10.0,Calm,Calm,-,N/A,,Clear,0,2012-10-13 00:52:00
8:52 PM,54.0,51.1,90,30.27,10.0,SE,4.6,-,N/A,,Clear,140,2012-10-13 01:52:00
10:52 PM,51.1,48.9,92,30.25,6.0,Calm,Calm,-,0.01,,Clear,0,2012-10-13 03:52:00
11:37 PM,50.0,48.2,94,30.26,2.0,Calm,Calm,-,N/A,,Clear,0,2012-10-13 04:37:00
11:59 PM,48.2,46.4,93,30.25,0.2,Calm,Calm,-,N/A,Fog,Fog,0,2012-10-13 04:59:00